| time (UTC) | temp F | wind direction | speed knots | gust knots | rain 1hr in | rain 24hr in | rain mn in | humidity % | barometer mb |
| 20260506124519 | 60 | 242 | 3.5 | 7.8 | 0.00 | 0.00 | 0.00 | 66 | 1013.1 |
| 20260506123529 | 60 | 245 | 3.5 | 8.7 | 0.00 | 0.00 | 0.00 | 67 | 1012.8 |
| 20260506122523 | 60 | 250 | 3.5 | 9.6 | 0.00 | 0.00 | 0.00 | 67 | 1012.7 |
| 20260506121519 | 60 | 247 | 4.3 | 9.6 | 0.00 | 0.00 | 0.00 | 67 | 1012.6 |
| 20260506120529 | 60 | 325 | 2.6 | 7.0 | 0.00 | 0.00 | 0.00 | 68 | 1012.4 |
| 20260506115524 | 60 | 238 | 1.7 | 6.1 | 0.00 | 0.00 | 0.00 | 68 | 1012.5 |
| 20260506114519 | 60 | 9 | 3.5 | 8.7 | 0.00 | 0.00 | 0.00 | 68 | 1012.3 |
| 20260506113529 | 60 | 227 | 2.6 | 6.1 | 0.00 | 0.00 | 0.00 | 68 | 1012.1 |
| 20260506112525 | 61 | 245 | 4.3 | 11.3 | 0.00 | 0.00 | 0.00 | 68 | 1011.9 |
| 20260506111519 | 61 | 259 | 2.6 | 7.0 | 0.00 | 0.00 | 0.00 | 68 | 1011.6 |
| 20260506110530 | 61 | 259 | 4.3 | 7.8 | 0.00 | 0.00 | 0.00 | 68 | 1011.7 |
| 20260506105525 | 61 | 22 | 2.6 | 7.0 | 0.00 | 0.00 | 0.00 | 69 | 1011.3 |
| 20260506104521 | 61 | 11 | 3.5 | 7.0 | 0.00 | 0.00 | 0.00 | 69 | 1011.3 |
| 20260506103516 | 62 | 331 | 2.6 | 6.1 | 0.00 | 0.00 | 0.00 | 68 | 1011.1 |
| 20260506102526 | 61 | 222 | 2.6 | 6.1 | 0.00 | 0.00 | 0.00 | 68 | 1010.9 |
| 20260506101521 | 62 | 275 | 1.7 | 3.5 | 0.00 | 0.00 | 0.00 | 68 | 1010.7 |
| 20260506100516 | 62 | 7 | 2.6 | 8.7 | 0.00 | 0.00 | 0.00 | 67 | 1010.6 |
| 20260506095527 | 62 | 37 | 3.5 | 7.8 | 0.00 | 0.00 | 0.00 | 67 | 1010.5 |
| 20260506094542 | 62 | 32 | 2.6 | 9.6 | 0.00 | 0.00 | 0.00 | 67 | 1010.2 |
| 20260506093537 | 62 | 23 | 4.3 | 7.8 | 0.00 | 0.00 | 0.00 | 68 | 1010.3 |
| 20260506092548 | 63 | 35 | 3.5 | 7.0 | 0.00 | 0.00 | 0.00 | 68 | 1010.3 |
| 20260506091522 | 63 | 359 | 3.5 | 7.8 | 0.00 | 0.00 | 0.00 | 68 | 1010.3 |
| 20260506090558 | 63 | 40 | 2.6 | 7.0 | 0.00 | 0.00 | 0.00 | 67 | 1010.2 |
| 20260506085528 | 64 | 49 | 2.6 | 6.1 | 0.00 | 0.00 | 0.00 | 67 | 1010.0 |
| 20260506084543 | 64 | 13 | 2.6 | 7.0 | 0.00 | 0.00 | 0.00 | 67 | 1009.9 |
| 20260506083537 | 64 | 10 | 4.3 | 8.7 | 0.00 | 0.00 | 0.00 | 67 | 1009.8 |
| 20260506082527 | 64 | 15 | 3.5 | 7.0 | 0.00 | 0.00 | 0.00 | 67 | 1009.9 |
| 20260506081521 | 65 | 60 | 1.7 | 5.2 | 0.00 | 0.00 | 0.00 | 66 | 1009.7 |
| 20260506080517 | 65 | 56 | 3.5 | 7.0 | 0.00 | 0.00 | 0.00 | 66 | 1009.4 |
| 20260506073517 | 66 | 26 | 2.6 | 6.1 | 0.00 | 0.00 | 0.00 | 66 | 1009.7 |
| 20260506072527 | 66 | 53 | 3.5 | 7.0 | 0.00 | 0.00 | 0.00 | 67 | 1009.8 |
| 20260506071522 | 66 | 72 | 4.3 | 7.0 | 0.00 | 0.00 | 0.00 | 67 | 1009.7 |
| 20260506070518 | 66 | 50 | 2.6 | 8.7 | 0.00 | 0.00 | 0.00 | 67 | 1009.8 |
| 20260506061543 | 68 | 43 | 2.6 | 7.0 | 0.00 | 0.00 | 0.00 | 66 | 1009.4 |
| 20260506060529 | 68 | 23 | 2.6 | 6.1 | 0.00 | 0.00 | 0.00 | 66 | 1009.4 |
| 20260506050529 | 71 | 289 | 2.6 | 7.0 | 0.00 | 0.00 | 0.00 | 63 | 1009.3 |
| 20260506044524 | 72 | 26 | 2.6 | 6.1 | 0.00 | 0.00 | 0.00 | 63 | 1009.2 |
| 20260506043536 | 73 | 332 | 1.7 | 5.2 | 0.00 | 0.00 | 0.00 | 63 | 1009.2 |
| 20260506042531 | 73 | 314 | 2.6 | 7.8 | 0.00 | 0.00 | 0.00 | 62 | 1009.2 |
| 20260506041518 | 73 | 248 | 2.6 | 8.7 | 0.00 | 0.00 | 0.00 | 61 | 1009.2 |
| 20260506040530 | 73 | 260 | 2.6 | 7.8 | 0.00 | 0.00 | 0.00 | 60 | 1008.8 |
| 20260506035523 | 74 | 82 | 2.6 | 6.1 | 0.00 | 0.00 | 0.00 | 59 | 1008.7 |
| 20260506034518 | 74 | 220 | 2.6 | 7.8 | 0.00 | 0.00 | 0.00 | 59 | 1008.6 |
| 20260506033557 | 75 | 40 | 1.7 | 5.2 | 0.00 | 0.00 | 0.00 | 58 | 1008.2 |
| 20260506032530 | 75 | 240 | 1.7 | 7.0 | 0.00 | 0.00 | 0.00 | 58 | 1008.0 |
| 20260506031531 | 76 | 291 | 1.7 | 6.1 | 0.00 | 0.00 | 0.00 | 58 | 1008.1 |
| 20260506030530 | 76 | 221 | 2.6 | 6.1 | 0.00 | 0.00 | 0.00 | 57 | 1008.1 |
| 20260506025525 | 77 | 252 | 4.3 | 11.3 | 0.00 | 0.00 | 0.00 | 57 | 1007.9 |
| 20260506024520 | 77 | 254 | 3.5 | 9.6 | 0.00 | 0.00 | 0.00 | 57 | 1007.6 |
| 20260506023515 | 78 | 38 | 2.6 | 7.8 | 0.00 | 0.00 | 0.00 | 56 | 1007.3 |
| 20260506022526 | 78 | 23 | 2.6 | 9.6 | 0.00 | 0.00 | 0.00 | 56 | 1007.0 |
| 20260506021521 | 79 | 358 | 2.6 | 6.1 | 0.00 | 0.00 | 0.00 | 56 | 1006.6 |
| 20260506020536 | 80 | 18 | 2.6 | 7.0 | 0.00 | 0.00 | 0.00 | 55 | 1006.3 |
| 20260506015547 | 81 | 27 | 3.5 | 7.8 | 0.00 | 0.00 | 0.00 | 54 | 1006.2 |
| 20260506014522 | 82 | 71 | 4.3 | 7.0 | 0.00 | 0.00 | 0.00 | 54 | 1005.9 |
| 20260506013517 | 82 | 51 | 2.6 | 6.1 | 0.00 | 0.00 | 0.00 | 53 | 1005.7 |
| 20260506012548 | 83 | 31 | 3.5 | 7.8 | 0.00 | 0.00 | 0.00 | 53 | 1005.6 |
| 20260506011523 | 84 | 82 | 1.7 | 5.2 | 0.00 | 0.00 | 0.00 | 52 | 1005.8 |
| 20260506010558 | 85 | 278 | 0.9 | 1.7 | 0.00 | 0.00 | 0.00 | 52 | 1005.5 |
| 20260506005529 | 85 | 117 | 0.0 | 2.6 | 0.00 | 0.00 | 0.00 | 53 | 1005.1 |
| 20260506004523 | 86 | 266 | 0.9 | 2.6 | 0.00 | 0.00 | 0.00 | 59 | 1005.2 |
| 20260506003519 | 86 | 167 | 0.9 | 2.6 | 0.00 | 0.00 | 0.00 | 62 | 1005.0 |
| 20260506002549 | 87 | 144 | 0.9 | 2.6 | 0.00 | 0.00 | 0.00 | 61 | 1005.0 |
| 20260506001524 | 87 | 141 | 2.6 | 6.1 | 0.00 | 0.00 | 0.00 | 61 | 1004.8 |
| 20260506000519 | 88 | 158 | 1.7 | 6.1 | 0.00 | 0.00 | 0.00 | 58 | 1004.4 |
| 20260505235529 | 88 | 163 | 2.6 | 7.8 | 0.00 | 0.00 | 0.00 | 58 | 1004.4 |
| 20260505234523 | 89 | 180 | 3.5 | 8.7 | 0.00 | 0.00 | 0.00 | 57 | 1004.2 |
| 20260505233519 | 90 | 147 | 4.3 | 11.3 | 0.00 | 0.00 | 0.00 | 55 | 1004.4 |
| 20260505232529 | 91 | 163 | 4.3 | 9.6 | 0.00 | 0.00 | 0.00 | 53 | 1004.1 |
| 20260505231523 | 93 | 154 | 2.6 | 7.0 | 0.00 | 0.00 | 0.00 | 52 | 1004.2 |
| 20260505230538 | 94 | 158 | 4.3 | 9.6 | 0.00 | 0.00 | 0.00 | 51 | 1004.1 |
| 20260505225528 | 93 | 147 | 4.3 | 11.3 | 0.00 | 0.00 | 0.00 | 51 | 1003.9 |
| 20260505224523 | 94 | 176 | 4.3 | 9.6 | 0.00 | 0.00 | 0.00 | 50 | 1003.9 |
| 20260505223517 | 94 | 155 | 2.6 | 7.8 | 0.00 | 0.00 | 0.00 | 46 | 1003.8 |
| 20260505222527 | 94 | 150 | 3.5 | 8.7 | 0.00 | 0.00 | 0.00 | 46 | 1003.7 |
| 20260505221522 | 95 | 152 | 4.3 | 11.3 | 0.00 | 0.00 | 0.00 | 45 | 1003.7 |
| 20260505220517 | 95 | 170 | 3.5 | 8.7 | 0.00 | 0.00 | 0.00 | 44 | 1003.6 |
| 20260505215528 | 96 | 125 | 1.7 | 6.1 | 0.00 | 0.00 | 0.00 | 44 | 1003.6 |
| 20260505214522 | 96 | 173 | 2.6 | 9.6 | 0.00 | 0.00 | 0.00 | 44 | 1003.8 |
| 20260505213517 | 96 | 184 | 2.6 | 7.8 | 0.00 | 0.00 | 0.00 | 44 | 1003.7 |
| 20260505212526 | 96 | 155 | 2.6 | 7.0 | 0.00 | 0.00 | 0.00 | 43 | 1003.9 |
| 20260505211520 | 97 | 194 | 3.5 | 7.8 | 0.00 | 0.00 | 0.00 | 44 | 1004.0 |
| 20260505210535 | 96 | 151 | 2.6 | 7.0 | 0.00 | 0.00 | 0.00 | 44 | 1004.3 |
| 20260505205525 | 96 | 158 | 3.5 | 8.7 | 0.00 | 0.00 | 0.00 | 44 | 1004.3 |
| 20260505204517 | 94 | 164 | 2.6 | 8.7 | 0.00 | 0.00 | 0.00 | 45 | 1004.2 |
| 20260505203527 | 96 | 178 | 3.5 | 9.6 | 0.00 | 0.00 | 0.00 | 43 | 1004.7 |
| 20260505202520 | 96 | 142 | 1.7 | 7.8 | 0.00 | 0.00 | 0.00 | 44 | 1004.7 |
| 20260505201515 | 95 | 129 | 1.7 | 11.3 | 0.00 | 0.00 | 0.00 | 44 | 1004.8 |
| 20260505200524 | 94 | 129 | 1.7 | 7.8 | 0.00 | 0.00 | 0.00 | 46 | 1004.9 |
| 20260505195519 | 93 | 133 | 3.5 | 8.7 | 0.00 | 0.00 | 0.00 | 46 | 1004.9 |
| 20260505194529 | 93 | 164 | 2.6 | 8.7 | 0.00 | 0.00 | 0.00 | 47 | 1004.8 |
| 20260505193524 | 93 | 156 | 3.5 | 12.2 | 0.00 | 0.00 | 0.00 | 47 | 1004.9 |
| 20260505192520 | 92 | 177 | 5.2 | 13.9 | 0.00 | 0.00 | 0.00 | 48 | 1005.0 |
| 20260505191530 | 92 | 151 | 4.3 | 15.6 | 0.00 | 0.00 | 0.00 | 48 | 1005.0 |
| 20260505190545 | 92 | 161 | 4.3 | 14.8 | 0.00 | 0.00 | 0.00 | 51 | 1005.2 |
| 20260505185540 | 92 | 168 | 4.3 | 11.3 | 0.00 | 0.00 | 0.00 | 51 | 1005.3 |
| 20260505184515 | 92 | 151 | 4.3 | 12.2 | 0.00 | 0.00 | 0.00 | 50 | 1005.5 |
| 20260505183525 | 92 | 142 | 4.3 | 14.8 | 0.00 | 0.00 | 0.00 | 49 | 1005.5 |
| 20260505182540 | 92 | 121 | 2.6 | 7.8 | 0.00 | 0.00 | 0.00 | 51 | 1005.6 |
| 20260505181516 | 91 | 157 | 4.3 | 13.0 | 0.00 | 0.00 | 0.00 | 52 | 1005.6 |
| 20260505180525 | 91 | 162 | 2.6 | 9.6 | 0.00 | 0.00 | 0.00 | 51 | 1005.6 |
| 20260505175540 | 91 | 150 | 4.3 | 9.6 | 0.00 | 0.00 | 0.00 | 52 | 1005.6 |
| 20260505174516 | 89 | 165 | 5.2 | 16.5 | 0.00 | 0.00 | 0.00 | 54 | 1005.7 |
| 20260505173526 | 89 | 173 | 3.5 | 12.2 | 0.00 | 0.00 | 0.00 | 53 | 1005.8 |
| 20260505172601 | 89 | 148 | 3.5 | 9.6 | 0.00 | 0.00 | 0.00 | 54 | 1005.6 |
| 20260505171516 | 89 | 149 | 3.5 | 9.6 | 0.00 | 0.00 | 0.00 | 55 | 1005.8 |
| 20260505170526 | 88 | 167 | 3.5 | 13.9 | 0.00 | 0.00 | 0.00 | 56 | 1005.7 |
| 20260505165521 | 86 | 147 | 4.3 | 11.3 | 0.00 | 0.00 | 0.00 | 57 | 1005.6 |
| 20260505164516 | 86 | 181 | 6.1 | 13.9 | 0.00 | 0.00 | 0.00 | 58 | 1005.4 |
| 20260505163525 | 85 | 153 | 5.2 | 12.2 | 0.00 | 0.00 | 0.00 | 59 | 1005.3 |
| 20260505162520 | 85 | 169 | 7.0 | 18.2 | 0.00 | 0.00 | 0.00 | 59 | 1005.4 |
| 20260505161528 | 86 | 173 | 6.1 | 14.8 | 0.00 | 0.00 | 0.00 | 59 | 1005.7 |
| 20260505160521 | 84 | 162 | 5.2 | 14.8 | 0.00 | 0.00 | 0.00 | 61 | 1005.6 |
| 20260505152527 | 82 | 151 | 5.2 | 13.0 | 0.00 | 0.00 | 0.00 | 64 | 1005.9 |
| 20260505151601 | 82 | 167 | 5.2 | 13.0 | 0.00 | 0.00 | 0.00 | 65 | 1005.8 |
| 20260505150516 | 80 | 184 | 7.0 | 19.1 | 0.00 | 0.00 | 0.00 | 67 | 1005.7 |
| 20260505140516 | 78 | 164 | 5.2 | 12.2 | 0.00 | 0.00 | 0.00 | 70 | 1005.4 |